Time,TemperatureF,DewpointF,PressureIn,WindDirection,WindDirectionDegrees,WindSpeedMPH,WindSpeedGustMPH,Humidity,HourlyPrecipIn,Conditions,Clouds,dailyrainin,SoftwareType,DateUTC
2013-05-15 00:03:00,50.0,44.0,30.10,North,0,0.0,0.0,81,0.00,,,0.00,,2013-05-15 04:03:00,
2013-05-15 00:12:00,50.0,44.0,30.10,North,0,0.0,0.0,81,0.00,,,0.00,,2013-05-15 04:12:00,
2013-05-15 00:24:00,50.0,45.0,30.10,North,0,0.0,0.0,84,0.00,,,0.00,,2013-05-15 04:24:00,
2013-05-15 00:33:00,49.0,46.0,30.09,North,0,0.0,2.0,88,0.00,,,0.00,,2013-05-15 04:33:00,
2013-05-15 00:42:00,49.0,46.0,30.09,North,0,0.0,2.0,88,0.00,,,0.00,,2013-05-15 04:42:00,
2013-05-15 00:52:00,49.0,46.0,30.09,North,0,0.0,0.0,90,0.00,,,0.00,,2013-05-15 04:52:00,
2013-05-15 01:02:00,48.0,45.0,30.09,North,0,0.0,0.0,90,0.00,,,0.00,,2013-05-15 05:02:00,
2013-05-15 01:12:00,48.0,45.0,30.09,North,0,0.0,0.0,90,0.00,,,0.00,,2013-05-15 05:12:00,
2013-05-15 01:22:00,48.0,46.0,30.09,North,0,0.0,0.0,92,0.00,,,0.00,,2013-05-15 05:22:00,
2013-05-15 01:32:00,48.0,46.0,30.09,North,0,0.0,0.0,92,0.00,,,0.00,,2013-05-15 05:32:00,
2013-05-15 01:42:00,48.0,46.0,30.09,North,0,0.0,0.0,92,0.00,,,0.00,,2013-05-15 05:42:00,
2013-05-15 01:52:00,48.0,46.0,30.08,North,0,0.0,0.0,93,0.00,,,0.00,,2013-05-15 05:52:00,
2013-05-15 02:02:00,48.0,46.0,30.08,WNW,302,1.0,3.0,93,0.00,,,0.00,,2013-05-15 06:02:00,
2013-05-15 02:11:00,48.0,46.0,30.08,WNW,302,1.0,3.0,93,0.00,,,0.00,,2013-05-15 06:11:00,
2013-05-15 02:21:00,48.0,46.0,30.07,North,0,0.0,2.0,93,0.00,,,0.00,,2013-05-15 06:21:00,
2013-05-15 02:32:00,48.0,46.0,30.07,North,0,0.0,2.0,92,0.00,,,0.00,,2013-05-15 06:32:00,
2013-05-15 02:42:00,48.0,46.0,30.05,North,0,0.0,5.0,92,0.00,,,0.00,,2013-05-15 06:42:00,
2013-05-15 02:52:00,48.0,46.0,30.05,North,0,0.0,5.0,92,0.00,,,0.00,,2013-05-15 06:52:00,
2013-05-15 03:01:00,48.0,45.0,30.05,North,0,0.0,5.0,91,0.00,,,0.00,,2013-05-15 07:01:00,
2013-05-15 03:11:00,48.0,45.0,30.05,North,0,0.0,5.0,91,0.00,,,0.00,,2013-05-15 07:11:00,
2013-05-15 03:22:00,49.0,46.0,30.04,North,0,0.0,4.0,89,0.00,,,0.00,,2013-05-15 07:22:00,
2013-05-15 03:32:00,49.0,46.0,30.04,North,0,0.0,4.0,90,0.00,,,0.00,,2013-05-15 07:32:00,
2013-05-15 03:41:00,49.0,46.0,30.04,North,0,0.0,4.0,90,0.00,,,0.00,,2013-05-15 07:41:00,
2013-05-15 03:52:00,49.0,46.0,30.04,North,0,0.0,4.0,90,0.00,,,0.00,,2013-05-15 07:52:00,
2013-05-15 04:02:00,49.0,46.0,30.03,North,0,0.0,3.0,89,0.00,,,0.00,,2013-05-15 08:02:00,
2013-05-15 04:12:00,49.0,46.0,30.03,North,0,0.0,3.0,89,0.00,,,0.00,,2013-05-15 08:12:00,
2013-05-15 04:21:00,49.0,46.0,30.03,WNW,300,1.0,3.0,88,0.00,,,0.00,,2013-05-15 08:21:00,
2013-05-15 04:32:00,49.0,45.0,30.03,WNW,300,1.0,4.0,87,0.00,,,0.00,,2013-05-15 08:32:00,
2013-05-15 04:42:00,49.0,45.0,30.02,North,0,0.0,5.0,87,0.00,,,0.00,,2013-05-15 08:42:00,
2013-05-15 04:53:00,49.0,45.0,30.02,North,0,0.0,5.0,87,0.00,,,0.00,,2013-05-15 08:53:00,
2013-05-15 05:01:00,49.0,45.0,30.01,WNW,300,2.0,5.0,86,0.00,,,0.00,,2013-05-15 09:01:00,
2013-05-15 05:11:00,49.0,45.0,30.01,WNW,300,2.0,5.0,86,0.00,,,0.00,,2013-05-15 09:11:00,
2013-05-15 05:21:00,49.0,44.0,30.01,North,0,0.0,4.0,84,0.00,,,0.00,,2013-05-15 09:21:00,
2013-05-15 05:33:00,50.0,45.0,30.00,WNW,300,4.0,11.0,83,0.00,,,0.00,,2013-05-15 09:33:00,
2013-05-15 05:42:00,50.0,45.0,30.00,WNW,300,4.0,11.0,83,0.00,,,0.00,,2013-05-15 09:42:00,
2013-05-15 05:53:00,50.0,45.0,30.01,North,0,0.0,9.0,82,0.00,,,0.00,,2013-05-15 09:53:00,
2013-05-15 06:02:00,50.0,45.0,30.01,North,0,0.0,6.0,82,0.00,,,0.00,,2013-05-15 10:02:00,
2013-05-15 06:13:00,50.0,45.0,30.01,North,0,0.0,6.0,82,0.00,,,0.00,,2013-05-15 10:13:00,
2013-05-15 06:22:00,50.0,45.0,30.01,North,0,0.0,5.0,82,0.00,,,0.00,,2013-05-15 10:22:00,
2013-05-15 06:32:00,50.0,45.0,30.00,WNW,300,1.0,4.0,82,0.00,,,0.00,,2013-05-15 10:32:00,
2013-05-15 06:42:00,51.0,46.0,30.00,North,0,0.0,6.0,83,0.00,,,0.00,,2013-05-15 10:42:00,
2013-05-15 06:52:00,51.0,46.0,30.00,North,0,0.0,6.0,83,0.00,,,0.00,,2013-05-15 10:52:00,
2013-05-15 07:11:00,51.0,46.0,30.00,WNW,300,1.0,6.0,84,0.00,,,0.00,,2013-05-15 11:11:00,
2013-05-15 07:19:00,51.0,47.0,29.99,WNW,300,2.0,5.0,85,0.00,,,0.00,,2013-05-15 11:19:00,
2013-05-15 07:27:00,51.0,47.0,29.99,WNW,300,2.0,5.0,85,0.00,,,0.00,,2013-05-15 11:27:00,
2013-05-15 07:37:00,51.0,47.0,29.99,North,0,0.0,5.0,86,0.00,,,0.00,,2013-05-15 11:37:00,
2013-05-15 07:47:00,52.0,48.0,29.98,WNW,300,5.0,7.0,87,0.00,,,0.00,,2013-05-15 11:47:00,
2013-05-15 08:00:00,52.0,48.0,29.98,WNW,300,5.0,7.0,87,0.00,,,0.00,,2013-05-15 12:00:00,
2013-05-15 08:15:00,54.0,50.0,29.96,WNW,300,4.0,9.0,87,0.00,,,0.00,,2013-05-15 12:15:00,
2013-05-15 08:29:00,54.0,50.0,29.96,WNW,300,4.0,9.0,87,0.00,,,0.00,,2013-05-15 12:29:00,
2013-05-15 08:36:00,54.0,50.0,29.97,WNW,300,1.0,6.0,87,0.00,,,0.00,,2013-05-15 12:36:00,
2013-05-15 08:47:00,54.0,50.0,29.97,WNW,300,1.0,6.0,87,0.00,,,0.00,,2013-05-15 12:47:00,
2013-05-15 08:57:00,55.0,51.0,29.96,WNW,300,4.0,11.0,86,0.00,,,0.00,,2013-05-15 12:57:00,
2013-05-15 09:09:00,55.0,51.0,29.95,WNW,300,3.0,10.0,86,0.00,,,0.00,,2013-05-15 13:09:00,
2013-05-15 09:18:00,55.0,51.0,29.95,WNW,300,3.0,10.0,86,0.00,,,0.00,,2013-05-15 13:18:00,
2013-05-15 09:26:00,55.0,51.0,29.96,North,0,0.0,5.0,86,0.00,,,0.00,,2013-05-15 13:26:00,
2013-05-15 09:36:00,57.0,53.0,29.96,WNW,301,2.0,10.0,86,0.00,,,0.00,,2013-05-15 13:36:00,
2013-05-15 09:46:00,57.0,53.0,29.96,WNW,301,2.0,10.0,86,0.00,,,0.00,,2013-05-15 13:46:00,
2013-05-15 10:14:00,59.0,54.0,29.95,North,0,0.0,10.0,82,0.00,,,0.00,,2013-05-15 14:14:00,
2013-05-15 10:27:00,59.0,54.0,29.95,North,0,0.0,10.0,82,0.00,,,0.00,,2013-05-15 14:27:00,
2013-05-15 10:37:00,59.0,53.0,29.94,WNW,300,5.0,12.0,81,0.00,,,0.00,,2013-05-15 14:37:00,
2013-05-15 10:47:00,59.0,53.0,29.94,WNW,300,5.0,12.0,81,0.00,,,0.00,,2013-05-15 14:47:00,
2013-05-15 10:59:00,60.0,53.0,29.91,WNW,300,5.0,10.0,79,0.00,,,0.00,,2013-05-15 14:59:00,
2013-05-15 11:08:00,60.0,53.0,29.91,North,0,0.0,9.0,79,0.00,,,0.00,,2013-05-15 15:08:00,
2013-05-15 11:16:00,62.0,55.0,29.91,WNW,301,3.0,12.0,78,0.00,,,0.00,,2013-05-15 15:16:00,
2013-05-15 11:28:00,62.0,55.0,29.91,WNW,301,3.0,12.0,78,0.00,,,0.00,,2013-05-15 15:28:00,
2013-05-15 11:37:00,63.0,56.0,29.91,WNW,301,4.0,11.0,78,0.00,,,0.00,,2013-05-15 15:37:00,
2013-05-15 11:47:00,63.0,56.0,29.91,WNW,301,4.0,11.0,78,0.00,,,0.00,,2013-05-15 15:47:00,
2013-05-15 12:02:00,64.0,56.0,29.91,WNW,300,5.0,13.0,75,0.00,,,0.00,,2013-05-15 16:02:00,
2013-05-15 12:10:00,64.0,56.0,29.91,WNW,300,5.0,13.0,75,0.00,,,0.00,,2013-05-15 16:10:00,
2013-05-15 12:28:00,65.0,55.0,29.90,WNW,301,6.0,13.0,69,0.00,,,0.00,,2013-05-15 16:28:00,
2013-05-15 12:36:00,65.0,54.0,29.89,WNW,300,2.0,7.0,68,0.00,,,0.00,,2013-05-15 16:36:00,
2013-05-15 12:51:00,65.0,54.0,29.89,WNW,300,2.0,7.0,68,0.00,,,0.00,,2013-05-15 16:51:00,
2013-05-15 13:00:00,65.0,55.0,29.88,WNW,300,2.0,7.0,70,0.00,,,0.00,,2013-05-15 17:00:00,
2013-05-15 13:10:00,65.0,55.0,29.89,WNW,300,2.0,10.0,70,0.00,,,0.00,,2013-05-15 17:10:00,
2013-05-15 13:19:00,65.0,55.0,29.89,WNW,300,2.0,10.0,70,0.00,,,0.00,,2013-05-15 17:19:00,
2013-05-15 13:27:00,65.0,54.0,29.89,WNW,301,10.0,13.0,68,0.00,,,0.00,,2013-05-15 17:27:00,
2013-05-15 13:37:00,64.0,53.0,29.88,WNW,301,2.0,12.0,68,0.00,,,0.00,,2013-05-15 17:37:00,
2013-05-15 13:46:00,64.0,53.0,29.88,WNW,301,2.0,12.0,68,0.00,,,0.00,,2013-05-15 17:46:00,
2013-05-15 13:59:00,64.0,55.0,29.89,WNW,302,1.0,9.0,72,0.00,,,0.00,,2013-05-15 17:59:00,
2013-05-15 14:07:00,63.0,53.0,29.92,WNW,303,5.0,13.0,71,0.00,,,0.00,,2013-05-15 18:07:00,
2013-05-15 14:16:00,63.0,53.0,29.92,WNW,303,5.0,13.0,71,0.00,,,0.00,,2013-05-15 18:16:00,
2013-05-15 14:27:00,61.0,54.0,29.92,North,0,0.0,3.0,77,0.00,,,0.00,,2013-05-15 18:27:00,
2013-05-15 14:37:00,60.0,54.0,29.91,North,0,0.0,2.0,81,0.00,,,0.00,,2013-05-15 18:37:00,
2013-05-15 14:46:00,60.0,54.0,29.91,North,0,0.0,2.0,81,0.00,,,0.00,,2013-05-15 18:46:00,
2013-05-15 14:57:00,59.0,55.0,29.87,WNW,300,2.0,7.0,86,0.00,,,0.00,,2013-05-15 18:57:00,
2013-05-15 15:09:00,59.0,55.0,29.86,WNW,301,4.0,10.0,86,0.00,,,0.00,,2013-05-15 19:09:00,
2013-05-15 15:15:00,59.0,55.0,29.86,WNW,301,4.0,10.0,86,0.00,,,0.00,,2013-05-15 19:15:00,
2013-05-15 15:30:00,59.0,55.0,29.76,WNW,300,8.0,18.0,86,0.00,,,0.00,,2013-05-15 19:30:00,
2013-05-15 15:38:00,60.0,55.0,29.78,WNW,300,10.0,18.0,85,0.00,,,0.00,,2013-05-15 19:38:00,
2013-05-15 15:45:00,60.0,55.0,29.78,WNW,300,10.0,18.0,85,0.00,,,0.00,,2013-05-15 19:45:00,
2013-05-15 16:08:00,64.0,58.0,29.76,WNW,299,4.0,10.0,80,0.00,,,0.00,,2013-05-15 20:08:00,
2013-05-15 16:18:00,64.0,58.0,29.76,WNW,299,4.0,10.0,80,0.00,,,0.00,,2013-05-15 20:18:00,
2013-05-15 16:29:00,65.0,59.0,29.77,WNW,300,5.0,11.0,80,0.00,,,0.00,,2013-05-15 20:29:00,
2013-05-15 16:38:00,66.0,59.0,29.77,WNW,301,1.0,15.0,78,0.00,,,0.00,,2013-05-15 20:38:00,
2013-05-15 16:46:00,66.0,59.0,29.77,WNW,301,1.0,15.0,78,0.00,,,0.00,,2013-05-15 20:46:00,
2013-05-15 16:58:00,67.0,58.0,29.76,WNW,301,8.0,13.0,74,0.00,,,0.00,,2013-05-15 20:58:00,
2013-05-15 17:08:00,67.0,58.0,29.76,WNW,301,9.0,21.0,74,0.00,,,0.00,,2013-05-15 21:08:00,
2013-05-15 17:19:00,67.0,58.0,29.76,WNW,301,9.0,21.0,74,0.00,,,0.00,,2013-05-15 21:19:00,
2013-05-15 17:28:00,69.0,60.0,29.75,WNW,301,9.0,17.0,74,0.00,,,0.00,,2013-05-15 21:28:00,
2013-05-15 17:40:00,70.0,61.0,29.75,WNW,301,11.0,19.0,73,0.00,,,0.00,,2013-05-15 21:40:00,
2013-05-15 17:50:00,70.0,61.0,29.75,WNW,301,11.0,19.0,73,0.00,,,0.00,,2013-05-15 21:50:00,
2013-05-15 18:00:00,70.0,61.0,29.74,WNW,301,5.0,12.0,74,0.00,,,0.00,,2013-05-15 22:00:00,
2013-05-15 18:10:00,70.0,61.0,29.73,WNW,301,4.0,14.0,72,0.00,,,0.00,,2013-05-15 22:10:00,
2013-05-15 18:18:00,70.0,61.0,29.73,WNW,301,4.0,14.0,72,0.00,,,0.00,,2013-05-15 22:18:00,
2013-05-15 18:29:00,70.0,61.0,29.72,WNW,301,4.0,8.0,73,0.00,,,0.00,,2013-05-15 22:29:00,
2013-05-15 18:40:00,71.0,62.0,29.72,WNW,301,4.0,9.0,72,0.00,,,0.00,,2013-05-15 22:40:00,
2013-05-15 18:59:00,72.0,62.0,29.72,North,0,0.0,7.0,70,0.00,,,0.00,,2013-05-15 22:59:00,
2013-05-15 19:07:00,72.0,62.0,29.72,North,0,0.0,7.0,70,0.00,,,0.00,,2013-05-15 23:07:00,
2013-05-15 19:15:00,72.0,62.0,29.72,North,0,0.0,7.0,70,0.00,,,0.00,,2013-05-15 23:15:00,
2013-05-15 19:28:00,72.0,62.0,29.73,North,0,0.0,1.0,71,0.00,,,0.00,,2013-05-15 23:28:00,
2013-05-15 19:38:00,72.0,62.0,29.73,North,0,0.0,0.0,71,0.00,,,0.00,,2013-05-15 23:38:00,
2013-05-15 19:50:00,72.0,62.0,29.73,North,0,0.0,0.0,71,0.00,,,0.00,,2013-05-15 23:50:00,
2013-05-15 20:01:00,72.0,62.0,29.73,North,0,0.0,1.0,72,0.00,,,0.00,,2013-05-16 00:01:00,
2013-05-15 20:06:00,71.0,62.0,29.72,North,0,0.0,3.0,74,0.00,,,0.00,,2013-05-16 00:06:00,
2013-05-15 20:17:00,71.0,62.0,29.72,North,0,0.0,3.0,74,0.00,,,0.00,,2013-05-16 00:17:00,
2013-05-15 20:27:00,70.0,62.0,29.72,North,0,0.0,1.0,77,0.00,,,0.00,,2013-05-16 00:27:00,
2013-05-15 20:36:00,70.0,63.0,29.72,North,0,0.0,0.0,78,0.00,,,0.00,,2013-05-16 00:36:00,
2013-05-15 20:58:00,69.0,63.0,29.72,North,0,0.0,1.0,82,0.00,,,0.00,,2013-05-16 00:58:00,
2013-05-15 21:07:00,68.0,63.0,29.72,North,0,0.0,0.0,84,0.00,,,0.00,,2013-05-16 01:07:00,
2013-05-15 21:17:00,67.0,63.0,29.73,North,0,0.0,2.0,86,0.00,,,0.00,,2013-05-16 01:17:00,
2013-05-15 21:30:00,67.0,63.0,29.73,North,0,0.0,2.0,86,0.00,,,0.00,,2013-05-16 01:30:00,
2013-05-15 21:36:00,66.0,62.0,29.72,North,0,0.0,0.0,88,0.00,,,0.00,,2013-05-16 01:36:00,
2013-05-15 21:48:00,66.0,62.0,29.72,North,0,0.0,0.0,88,0.00,,,0.00,,2013-05-16 01:48:00,
2013-05-15 22:01:00,65.0,62.0,29.72,North,0,0.0,0.0,89,0.00,,,0.00,,2013-05-16 02:01:00,
2013-05-15 22:07:00,65.0,62.0,29.72,North,0,0.0,0.0,89,0.00,,,0.00,,2013-05-16 02:07:00,
2013-05-15 22:17:00,65.0,62.0,29.72,North,0,0.0,0.0,89,0.00,,,0.00,,2013-05-16 02:17:00,
2013-05-15 22:28:00,64.0,61.0,29.74,North,0,0.0,4.0,91,0.00,,,0.00,,2013-05-16 02:28:00,
2013-05-15 22:38:00,63.0,61.0,29.74,North,0,0.0,1.0,92,0.00,,,0.00,,2013-05-16 02:38:00,
2013-05-15 22:55:00,63.0,61.0,29.74,North,0,0.0,1.0,92,0.00,,,0.00,,2013-05-16 02:55:00,
2013-05-15 23:07:00,63.0,61.0,29.74,North,0,0.0,3.0,94,0.00,,,0.00,,2013-05-16 03:07:00,
2013-05-15 23:16:00,63.0,61.0,29.74,North,0,0.0,3.0,94,0.00,,,0.00,,2013-05-16 03:16:00,
2013-05-15 23:37:00,62.0,61.0,29.74,North,0,0.0,3.0,95,0.00,,,0.00,,2013-05-16 03:37:00,
2013-05-15 23:57:00,61.0,60.0,29.74,North,0,0.0,0.0,95,0.00,,,0.00,,2013-05-16 03:57:00,